Bookmark and Share
Track history (hours):
 

Roubini K

Last reported at 2014-Apr-19 04:33 UTC. Time now 2014-Apr-19 05:11 UTC.
Position N 51°33' E 002°19'.

Length 151 m; draft 5.1 m.

Type: Cargo ship. MMSI: 256978000.

NotesDate/timePositionNaut miles runAvg speedWind from/ knotsBaromVisibWave heightAir tempDewpointWater temp
2014-Apr-19 04:33N 51°33' E 002°19'1110.8
2014-Apr-19 03:33N 51°25' E 002°07'1110.3
2014-Apr-19 02:32N 51°15' E 002°05'1111.2
2014-Apr-19 01:33N 51°08' E 001°51'7 5.2
2014-Apr-19 00:09N 51°02' E 001°58'7 9.4
2014-Apr-18 23:25N 51°03' E 002°09'8 8.7
2014-Apr-18 22:33N 51°03' E 002°21'1 0.6
2014-Apr-18 21:33N 51°03' E 002°20'2 1.9
2014-Apr-18 20:31N 51°03' E 002°17'0 0.0
2014-Apr-18 19:31N 51°03' E 002°17'0 0.0
2014-Apr-18 18:31N 51°03' E 002°17'0 0.0
2014-Apr-18 17:31N 51°03' E 002°17'0 0.0
2014-Apr-18 16:31N 51°03' E 002°17'0 0.0
2014-Apr-18 15:31N 51°03' E 002°17'0 0.0
2014-Apr-18 14:31N 51°03' E 002°17'0 0.0
2014-Apr-18 13:31N 51°03' E 002°17'0 0.0
2014-Apr-18 12:31N 51°03' E 002°17'0 0.0
2014-Apr-18 11:31N 51°03' E 002°17'0 0.0
2014-Apr-18 10:31N 51°03' E 002°17'0 0.0
2014-Apr-18 09:31N 51°03' E 002°17'0 0.0
2014-Apr-18 08:32N 51°03' E 002°17'0 0.0
2014-Apr-18 07:31N 51°03' E 002°17'0 0.0
2014-Apr-18 06:31N 51°03' E 002°17'0 0.0
2014-Apr-18 05:31N 51°03' E 002°17'0 0.0
2014-Apr-18 04:31N 51°03' E 002°17'0 0.0
2014-Apr-18 03:31N 51°03' E 002°17'0 0.0
2014-Apr-18 02:31N 51°03' E 002°17'0 0.0
2014-Apr-18 01:31N 51°03' E 002°17'0 0.0
2014-Apr-18 00:31N 51°03' E 002°17'0 0.0
2014-Apr-17 23:31N 51°03' E 002°17'0 0.0
2014-Apr-17 22:31N 51°03' E 002°17'0 0.0
2014-Apr-17 21:31N 51°03' E 002°17'0 0.0
2014-Apr-17 20:31N 51°03' E 002°17'0 0.0
2014-Apr-17 19:31N 51°03' E 002°17'0 0.0
2014-Apr-17 18:31N 51°03' E 002°17'0 0.0
2014-Apr-17 17:31N 51°03' E 002°17'0 0.0
2014-Apr-17 16:31N 51°03' E 002°17'0 0.0
2014-Apr-17 15:31N 51°03' E 002°17'0 0.0
2014-Apr-17 14:31N 51°03' E 002°17'0 0.0
2014-Apr-17 13:32N 51°03' E 002°17'0 0.0
2014-Apr-17 12:28N 51°03' E 002°17'0 0.0
2014-Apr-17 11:31N 51°03' E 002°17'0 0.0
2014-Apr-17 09:31N 51°03' E 002°17'0 0.0
2014-Apr-17 08:28N 51°03' E 002°17'0 0.0
2014-Apr-17 07:31N 51°03' E 002°17'0 0.0
2014-Apr-17 06:25N 51°03' E 002°17'0 0.0
2014-Apr-17 05:25N 51°03' E 002°17'0 0.0
2014-Apr-17 04:31N 51°03' E 002°17'0 0.0
2014-Apr-17 03:31N 51°03' E 002°17'0 0.0
2014-Apr-17 02:31N 51°03' E 002°17'0 0.0
2014-Apr-17 01:25N 51°03' E 002°17'0 0.0
2014-Apr-17 00:31N 51°03' E 002°17'0 0.0
2014-Apr-16 23:31N 51°03' E 002°17'0 0.0
2014-Apr-16 22:28N 51°03' E 002°17'0 0.0
2014-Apr-16 21:31N 51°03' E 002°17'0 0.0
2014-Apr-16 20:31N 51°03' E 002°17'0 0.0
2014-Apr-16 19:31N 51°03' E 002°17'0 0.0
2014-Apr-16 18:25N 51°03' E 002°17'0 0.0
2014-Apr-16 17:28N 51°03' E 002°17'0 0.0
2014-Apr-16 16:31N 51°03' E 002°17'0 0.0
2014-Apr-16 15:31N 51°03' E 002°17'0 0.0
2014-Apr-16 14:32N 51°03' E 002°17'0 0.0
2014-Apr-16 13:29N 51°03' E 002°17'0 0.0
2014-Apr-16 12:32N 51°03' E 002°17'0 0.0
2014-Apr-16 11:32N 51°03' E 002°17'0 0.0
2014-Apr-16 10:32N 51°03' E 002°17'0 0.0
2014-Apr-16 09:32N 51°03' E 002°17'0 0.0
2014-Apr-16 08:30N 51°03' E 002°17'0 0.0
2014-Apr-16 07:32N 51°03' E 002°17'0 0.3
2014-Apr-16 06:34N 51°03' E 002°17'3 2.5
2014-Apr-16 05:32N 51°03' E 002°21'6 6.0
2014-Apr-16 04:33N 51°03' E 002°11'8 8.1
2014-Apr-16 03:33N 51°02' E 001°58'6 6.2
2014-Apr-16 02:30N 51°03' E 001°48'  
2014-Apr-11 11:14N 39°03' W 009°51'15 9.2
2014-Apr-11 09:33N 38°48' W 009°51'55 9.1
2014-Apr-11 03:33N 37°54' W 009°37'9 9.3
2014-Apr-11 02:33N 37°45' W 009°34'9 9.0
2014-Apr-11 01:33N 37°37' W 009°32'9 8.8
2014-Apr-11 00:33N 37°28' W 009°29'20 9.0
2014-Apr-10 22:21N 37°09' W 009°24'7 8.8
2014-Apr-10 21:33N 37°02' W 009°22'9 8.8
2014-Apr-10 20:33N 36°53' W 009°19'9 9.0
2014-Apr-10 19:33N 36°47' W 009°11'18 8.8
2014-Apr-10 17:33N 36°39' W 008°51'18 9.2
2014-Apr-10 15:33N 36°34' W 008°30'10 9.9
2014-Apr-10 14:33N 36°31' W 008°18'14 9.8
2014-Apr-10 13:07N 36°26' W 008°01'120 8.9
2014-Apr-09 23:33N 35°58' W 005°36'8 7.9
2014-Apr-09 22:33N 36°00' W 005°27'8 7.6
2014-Apr-09 21:34N 36°02' W 005°18'9 8.6
2014-Apr-09 20:34N 36°03' W 005°07'  

Dump ship's entire track history

sailing weather and tide predictions

Roubini K — 9HHC9 — position and weather